Satellite-Ground Cal/Val Site Overpasses Predictions

Prediction of Satellite NPP Overpassing Cal/Val Site: Antarctic Dome C

Ground Cal/Val Site Location: Latitude: -75.10, Longitude: 123.35; Satellite-Ground Site NADIR distance within 100 km.

Table of predicted overpasses for the next 14.0 days since TLE Epoch: 12/7/2024
Interval Starting Time Ending Time Minimum Distance Time Minimum Distance (km)
1 12/07/2024 15:01:14 12/07/2024 15:01:37 12/07/2024 15:01:26 60.08
2 12/08/2024 14:42:26 12/08/2024 14:42:51 12/08/2024 14:42:39 48.96
3 12/09/2024 07:44:08 12/09/2024 07:44:29 12/09/2024 07:44:18 70.66
4 12/10/2024 07:25:18 12/10/2024 07:25:45 12/10/2024 07:25:32 37.11
5 12/12/2024 15:07:51 12/12/2024 15:07:55 12/12/2024 15:07:53 98.71
6 12/13/2024 14:48:50 12/13/2024 14:49:19 12/13/2024 14:49:05 12.78
7 12/15/2024 07:31:44 12/15/2024 07:32:13 12/15/2024 07:31:58 2.00
8 12/18/2024 14:55:16 12/18/2024 14:55:45 12/18/2024 14:55:30 24.98
9 12/19/2024 14:36:35 12/19/2024 14:36:52 12/19/2024 14:36:43 82.25
